Content
SEND FEEDBACK

Daily
Averages
Monthly
Summary
United States of America

LAKE GEORGE, NEW YORK


Home > North America > United States > New York
Elevation: 321 feet     Latitude: 43 21N     Longitude: 073 37W

WEATHER
 
SELECT A DAY
Number of Records: 213,342;   Date Range: 1/1/95 - 9/18/14
 
SHARE

PRINT THIS DATA

[ ← Previous Day ]
WEATHER ALMANAC - JANUARY 29, 2013
[ Next Day → ]
[ °C ]   °F
Weather ElementAverageHighLow
Temperature27.5 °F32 °F (11:19 pm)21.2 °F (4:35 am)
Dewpoint25 °F30.2 °F (11:08 pm)19.4 °F (4:35 am)
Humidity90.1 %100 % (11:08 pm)80 % (5:20 am)
Barometer30.07 in30.18 in (10:53 am)29.99 in (12:33 am)
Wind Speed1.2 mph6.9 mph (2:44 am)
Weather ElementAverage
Visibility4.4 mi
Wind DirectionENE (70 °)

Weather ElementTotal
Precipitation0.05 in
Heating Degree Days38.4 (Base 65)
Averaged from 54 records on January 29, 2013
WEATHER CONDITIONS BREAKOUT
WIND DIRECTION BREAKOUT
WEATHER BY HOUR - JANUARY 29, 2013
[ °C ]   °F
Local TimeTemperatureDewpointHumidityBarometerVisibilityWind DirectionWind SpeedGust SpeedPrecipitationEventsConditions
12:33 AM23.0 °F21.2 °F93 %29.99 in3.0 miNorth (360°)3.5 mph0.00 inOvercast
12:53 AM23.0 °F21.0 °F92 %30.03 in4.0 miNorth (360°)4.6 mph0.00 inOvercast
1:39 AM23.0 °F21.2 °F93 %30.01 in3.0 miNorth (350°)4.6 mph0.00 inRainLight Freezing Rain
1:53 AM24.1 °F21.9 °F91 %30.04 in4.0 miNorth (350°)4.6 mph0.01 inRainLight Freezing Rain
2:06 AM24.8 °F21.2 °F86 %30.02 in3.0 miNorth (350°)4.6 mph0.00 inSnowLight Snow
2:30 AM24.8 °F21.2 °F86 %30.02 in7.0 miNorth (350°)3.5 mph0.00 inOvercast
2:44 AM24.8 °F21.2 °F86 %30.03 in9.0 miNorth (350°)6.9 mph0.00 inOvercast
2:53 AM24.1 °F21.0 °F88 %30.06 in10.0 miNorth (360°)5.8 mph0.00 inOvercast
3:53 AM24.1 °F21.9 °F91 %30.07 in10.0 miCalmOvercast
4:22 AM23.0 °F21.2 °F93 %30.04 in10.0 miNorth (360°)4.6 mphOvercast
4:35 AM21.2 °F19.4 °F93 %30.05 in10.0 miNNE (20°)3.5 mphOvercast
4:53 AM23.0 °F21.0 °F92 %30.09 in10.0 miCalmOvercast
5:20 AM24.8 °F19.4 °F80 %30.06 in5.0 miCalmOvercast
5:48 AM24.8 °F21.2 °F86 %30.07 in9.0 miCalmOvercast
5:53 AM24.1 °F21.9 °F91 %30.11 in8.0 miCalmOvercast
6:15 AM24.8 °F21.2 °F86 %30.08 in6.0 miCalmOvercast
6:53 AM24.1 °F21.9 °F91 %30.13 in5.0 miCalmOvercast
7:01 AM24.8 °F21.2 °F86 %30.09 in2.5 miCalmOvercast
7:15 AM24.8 °F21.2 °F86 %30.10 in1.5 miCalmOvercast
7:19 AM24.8 °F21.2 °F86 %30.10 in3.0 miCalmOvercast
7:41 AM24.8 °F21.2 °F86 %30.12 in4.0 miCalmOvercast
7:53 AM24.1 °F21.9 °F91 %30.16 in4.0 miCalmOvercast
8:53 AM25.0 °F23.0 °F92 %30.16 in4.0 miCalmOvercast
9:53 AM26.1 °F23.0 °F88 %30.17 in4.0 miCalmOvercast
10:53 AM27.0 °F24.1 °F89 %30.18 in4.0 miCalmOvercast
11:15 AM26.6 °F24.8 °F93 %30.15 in5.0 miCalmOvercast
11:53 AM28.0 °F25.0 °F88 %30.17 in5.0 miCalmOvercast
12:53 PM28.9 °F26.1 °F89 %30.14 in4.0 miCalmOvercast
1:41 PM30.2 °F26.6 °F86 %30.08 in5.0 miCalmOvercast
1:53 PM30.0 °F27.0 °F88 %30.12 in5.0 miCalmOvercast
2:53 PM30.9 °F27.0 °F85 %30.11 in5.0 miCalmOvercast
3:53 PM30.9 °F27.0 °F85 %30.09 in5.0 miCalm0.00 inOvercast
4:09 PM30.2 °F26.6 °F86 %30.06 in4.0 miESE (120°)3.5 mph0.00 inOvercast
4:53 PM30.9 °F27.0 °F85 %30.09 in4.0 miCalm0.00 inOvercast
5:16 PM30.2 °F28.4 °F93 %30.05 in5.0 miCalmOvercast
5:53 PM30.9 °F28.0 °F89 %30.07 in4.0 miCalmOvercast
6:09 PM30.2 °F28.4 °F93 %30.05 in4.0 miCalmOvercast
6:28 PM30.2 °F28.4 °F93 %30.05 in4.0 miCalmOvercast
6:53 PM30.9 °F28.0 °F89 %30.08 in4.0 miCalmOvercast
7:17 PM30.2 °F28.4 °F93 %30.04 in2.0 miESE (110°)4.6 mphOvercast
7:53 PM30.9 °F28.9 °F92 %30.06 in2.5 miCalmOvercast
8:08 PM30.2 °F28.4 °F93 %30.04 in2.5 miCalmOvercast
8:27 PM30.2 °F28.4 °F93 %30.04 in3.0 miCalm0.00 inOvercast
8:53 PM30.9 °F28.9 °F92 %30.06 in2.5 miCalm0.00 inOvercast
9:10 PM30.2 °F28.4 °F93 %30.03 in2.5 miCalmOvercast
9:16 PM30.2 °F28.4 °F93 %30.03 in2.5 miCalmOvercast
9:23 PM30.2 °F28.4 °F93 %30.03 in2.5 miCalmOvercast
9:42 PM30.2 °F28.4 °F93 %30.02 in2.5 miCalmOvercast
9:53 PM30.9 °F28.9 °F92 %30.05 in2.5 miCalmOvercast
10:41 PM30.2 °F28.4 °F93 %30.00 in1.5 miSouth (170°)4.6 mph0.01 inOvercast
10:53 PM30.9 °F30.0 °F96 %30.02 in1.8 miSouth (170°)5.8 mph0.01 inOvercast
11:08 PM30.2 °F30.2 °F100 %30.01 in2.0 miCalm0.00 inOvercast
11:19 PM32.0 °F30.2 °F93 %30.01 in1.5 miCalm0.00 inOvercast
11:53 PM32.0 °F30.0 °F92 %30.05 in1.5 miCalm0.02 inOvercast
Hourly data recorded from KGFL, located miles away from Lake George, New York







STORIES FROM OUR PARTNERS